www.pogodaiklimat.ru

Погода и климат >> Архив погоды >> Иран >> Омидийе


ПОГОДА в Омидийе

  • Прогноз погоды в Омидийе
  • Монитор погоды в Омидийе

АРХИВ ПОГОДЫ в Омидийе

Время (UTC), дата Ветер
(напр.,м/с)
 
Видим.   Явления Облачность Т
(С)
Тd
(С)
f
(%)
Тe
(С)
Тes
(С)
Комфортность P
(гПа)
Po
(гПа)
Тmin
(С)
Tmax
(С)
R
(мм)
R24
(мм)
S
(см)
15 11.02 СЗ 6 4000 м дымка 8/4 1050 м
[Sc diur, vesp Ac As]
+16.5 +12.9 79 +15 +15 1014.3 1011.1 +17.8
18 11.02 С 4 4000 м дымка ясно +12.7 +11.1 90 +11 +11 1015.3 1012.1
21 11.02 С 4 4000 м дымка ясно +10.9 +10.1 95 +8 +8 1016.0 1012.8
00 12.02 С 3 4000 м дымка ясно +10.1 +9.7 97 +8 +8 1016.7 1013.5
03 12.02 С 2 900 м туман ясно +8.8 +8.7 99 +7 +7 1017.2 1014.0 +8.8
06 12.02 СЗ 3 800 м туман ?/? +11.1 +10.9 99 +9 +9 1018.6 1015.4
09 12.02 С 4 4000 м мгла {туман} 6/6 1200 м
[Sc diur, vesp]
+14.8 +10.8 77 +14 +17 1019.2 1015.9
12 12.02 С 6 8000 м мгла {туман} 4/4 1200 м
[Cu hum]
+18.1 +10.4 61 +18 +19 1018.3 1015.1
15 12.02 СЗ 5 10 км 1/1 1200 м
[Cu hum]
+15.5 +10.2 71 +14 +14 1019.2 1015.9 +18.1 666
18 12.02 СЗ 4 8000 м дымка ясно +12.1 +10.1 88 +10 +10 1021.9 1018.7
21 12.02 С 2 6000 м дымка ясно +10.1 +9.1 94 +8 +8 1022.2 1019.0
00 13.02 З 1 4000 м дымка ясно +9.0 +8.4 96 +8 +8 1022.5 1019.2
03 13.02 ЮВ 2 1500 м дымка ясно +8.5 +8.4 99 +6 +6 1023.5 1020.2 +8.5 666
06 13.02 штиль 0 4000 м дымка ясно +14.7 +10.5 76 +14 +23 1025.3 1022.0
09 13.02 СЗ 2 10 км ясно +17.8 +11.4 66 +18 +30 опасность
простуды
1025.1 1021.9
12 13.02 СЗ 4 10 км 3/0
[Ci fib]
+19.4 +9.3 52 +20 +23 1022.7 1019.5
15 13.02 СЗ 3 10 км ясно +16.5 +10.4 67 +16 +16 1022.1 1018.9 +19.6
18 13.02 штиль 0 10 км ясно +14.2 +10.2 77 +14 +14 1023.0 1019.8
21 13.02 С 2 10 км ясно +10.8 +8.9 88 +9 +9 1022.7 1019.5
00 14.02 штиль 0 4000 м дымка ясно +9.6 +8.7 94 +9 +9 1021.9 1018.7
03 14.02 штиль 0 4000 м дымка ясно +9.2 +8.6 96 +8 +8 1021.4 1018.2 +8.3
06 14.02 штиль 0 5000 м мгла 5/5 1200 м
[Sc diur, vesp]
+14.1 +10.0 76 +14 +18 1022.6 1019.3
09 14.02 ЮВ 4 10 км 4/0
[Ci fib]
+20.5 +9.7 50 +22 +29 комфорт 1021.3 1018.1
12 14.02 Ю 8 10 км 10/0
[As op]
+20.5 +8.5 46 +21 +22 комфорт 1019.3 1016.1
15 14.02 ЮВ 3 10 км 10/6 1050 м
[Cb calv As op]
+17.2 +10.6 65 +17 +17 1018.0 1014.8 +21.8 666
18 14.02 ЮВ 5 8000 м мгла 5/5 1200 м
[Sc diur, vesp]
+16.8 +9.8 63 +16 +16 1018.0 1014.8
21 14.02 В 3 8000 м слаб. ливневой дождь 8/8 1050 м
[Cb calv]
+15.0 +11.2 78 +14 +14 1019.1 1015.9
00 15.02 Ю 8 8000 м мгла 9/9 1050 м
[Cb calv]
+16.0 +11.3 74 +14 +14 1017.5 1014.3 0.3
03 15.02 ЮВ 4 6000 м дымка {ливн. осадки} 10/10 1050 м
[Cb calv]
+14.3 +11.8 85 +13 +13 1016.8 1013.6 +14.3
06 15.02 ЮВ 6 10 км {ливн. осадки} 8/8 300 м
[Cb calv]
+17.8 +11.6 67 +17 +18 1017.6 1014.4 0.7
09 15.02 ЮВ 14 10 км 8/8 1050 м
[Cb calv]
+20.8 +13.5 63 +22 +22 комфорт 1016.9 1013.7
12 15.02 ЮВ 16 10 км 8/8 1050 м
[Cb calv]
+20.8 +10.2 51 +22 +22 комфорт 1016.4 1013.2
15 15.02 Ю 9 9000 м слаб. ливневой дождь 9/9 900 м
[Cb calv]
+18.1 +10.7 62 +17 +17 1015.6 1012.4 +21.4 666
18 15.02 Ю 12 10 км {ливн. осадки} 8/4 1200 м
[Sc diur, vesp Ac As]
+18.3 +10.3 60 +17 +17 1015.8 1012.6 0.1
21 15.02 ЮВ 6 10 км 9/6 1050 м
[Cb calv Ac As]
+17.8 +11.0 64 +17 +17 1016.2 1013.0
00 16.02 ЮВ 5 10 км 9/5 1050 м
[Cb calv Ac As]
+17.7 +11.3 66 +17 +17 1016.0 1012.8
03 16.02 ЮВ 5 8000 м ливневой дождь 10/10 900 м
[Cb calv]
+15.7 +12.6 82 +15 +15 1017.0 1013.8 +15.7 666
06 16.02 ЮВ 9 6000 м слаб. ливневой дождь 10/10 900 м
[Cb calv]
+15.2 +12.9 86 +13 +13 1018.8 1015.6 2
09 16.02 В 1 10 км 9/9 1050 м
[Cb calv]
+18.4 +10.8 61 +20 +21 1018.8 1015.6
12 16.02 СЗ 1 10 км {ливн. осадки} 6/6 1050 м
[Cb calv]
+21.3 +11.7 54 +23 +25 комфорт 1017.8 1014.6 0.6
15 16.02 З 2 10 км 5/5 1200 м
[Sc diur, vesp]
+17.9 +11.6 67 +18 +18 1018.0 1014.8 +21.3
18 16.02 С 3 10 км ясно +12.5 +8.1 75 +11 +11 1019.8 1016.5
21 16.02 С 5 10 км ясно +10.7 +6.6 76 +8 +8 1020.0 1016.8
00 17.02 С 3 10 км ясно +8.6 +5.7 82 +6 +6 1019.7 1016.5
03 17.02 С 2 10 км ясно +6.8 +4.9 88 +5 +5 1020.1 1016.9 +6.8
06 17.02 штиль 0 10 км ясно +14.9 +7.0 59 +15 +24 1020.8 1017.6
09 17.02 С 8 10 км ясно +17.6 +6.1 47 +17 +19 1020.2 1017.0
12 17.02 С 7 10 км ясно +19.7 +7.2 44 +20 +21 1018.4 1015.1
15 17.02 СЗ 6 10 км ясно +16.6 +8.3 58 +16 +16 1017.9 1014.6 +19.7
18 17.02 С 4 10 км ясно +12.5 +7.7 73 +11 +11 1018.4 1015.2
21 17.02 С 4 10 км ясно +10.2 +7.4 83 +8 +8 1018.4 1015.2
00 18.02 С 2 10 км ясно +8.9 +6.6 85 +7 +7 1016.6 1013.4
03 18.02 Ю 2 10 км ясно +7.5 +6.0 90 +5 +5 1017.8 1014.5 +7.5
06 18.02 С 2 10 км ясно +14.7 +8.2 65 +14 +21 1018.3 1015.0
09 18.02 СЗ 5 10 км 4/4 1200 м
[Sc diur, vesp]
+18.5 +6.4 45 +18 +22 1018.6 1015.3 666
12 18.02 СЗ 5 10 км 4/4 1200 м
[Sc diur, vesp]
+19.4 +4.0 36 +20 +21 1015.1 1011.8

 

Местоположение метеостанции Омидийе (Иран): широта 30.77 долгота 49.67 высота над уровнем моря 27 м.

В архиве по умолчанию представлена погода в Омидийе за последнюю неделю. Архивные данные за месяц целиком и за предыдущие месяцы, начиная с января 2011 года, Вы можете получить, выбрав интересующий диапазон дат из раскрывающегося списка и нажав кнопку "Ввод!".


*Определитесь, кто Вы:
робот инопланетянин человек

Внимание! Время в таблицах - всемирное. Для получения местного времени необходимо прибавить поправку, которая равна 3.5 ч.

Смотрите также архив погоды в соседних городах и на ближайших метеорологических станциях:

Погода в Гечсаране (Иран) (112 км)
Погода в Ахвазе (Иран) (114 км)
Погода в Месджеде-Солеймане (Иран) (140 км)
Погода в Эль-Фао (Ирак) (143 км)
Погода в Абадане (Иран) (143 км)
Погода на Бубияне (Кувейт) (167 км)
Погода на Харке (Иран) (179 км)
Погода в Басре (Ирак) (182 км)
Погода в Ясудже (Иран) (183 км)
Погода в Басре аэропорт (Ирак) (183 км)

Пояснения к столбцам:

Ветер - указаны скорость ветра в м/с - средняя за 10 мин, порывы в срок и между сроками (в фигурных скобках) и направление, откуда дует ветер: С - северный, СВ - северо-восточный, В - восточный, ЮВ - юго-восточный, Ю - южный, ЮЗ - юго-западный, З - западный, СЗ - северо-западный.
Видимость - горизонтальная дальность видимости в метрах или километрах. При видимости от 1 до 10 км при отсутствии осадков обычно наблюдается дымка, при ухудшении видимости до 1 км и менее - туман. В сухую погоду видимость может ухудшаться дымом, пылью или мглою.
Явления - указаны атмосферные явления, наблюдавшиеся в срок или в последний час перед сроком; фигурными скобками обозначены явления, наблюдавшиеся между сроками (за 1-3 часа до срока); квадратными скобками обозначены град или гололедные отложения с указанием их диаметра в мм.
Облачность - указаны через наклонную черту общая и нижняя облачность в баллах и высота нижней границы облаков в метрах; квадратными скобками обозначены формы облаков: Ci - перистые, Cs - перисто-слоистые, Cc - перисто-кучевые, Ac - высококучевые, As - высокослоистые, Sc - слоисто-кучевые, Ns - слоисто-дождевые, Cu - кучевые, Cb - кучево-дождевые. Подробнее классификацию облаков см. в Атласе облаков (PDF).
T - Температура воздуха - температура, измеренная на высоте 2 м над землей.
Td - Температура точки росы - температура, при понижении до которой содержащийся в воздухе водяной пар достигнет насыщения.
f - Относительная влажность воздуха - влажноcть воздуха, измеренная на высоте 2 м над землей.
Te - Эффективная температура - температура, которую ощущает одетый по сезону человек в тени. Характеристика душности погоды. При расчете учитывается влияние влажности воздуха и скорости ветра на теплоощущения человека.
Tes - Эффективная температура на солнце - температура, которую ощущает человек, с поправкой на солнечный нагрев. Характеристика знойности погоды. Зависит от высоты солнца над горизонтом, облачности и скорости ветра. Ночью, в пасмурную погоду, а также при ветре 12 м/с и более поправка равна нулю.
P - Атмосферное давление - приведенное к уровню моря атмосферное давление.
Po - Атмосферное давление - измеренное на уровне метеостанции атмосферное давление.
Tmin - Минимальная температура - минимум температуры воздуха на высоте 2 м над землей.
Tmax - Максимальная температура - максимум температуры воздуха на высоте 2 м над землей.
R - Количество осадков - Количество выпавших осадков за период времени, мм. При наведении курсора мыши на число - период времени, за который выпало указанное количество осадков.
R24 - Количество осадков - Количество выпавших осадков за 24 часа, мм.
S - Снежный покров - Высота снежного покрова, см. При наведении курсора мыши на число - состояние снежного покрова и степень покрытия местности в баллах.